Simultaneous Nadir Overpasses (SNOs) Predictions

Prediction of SNOs between NOAA-20 and NOAA-19 Satellite Orbit:

Table of predicted SNOs for the next 14.0 days since TLE Epoch: 6/18/2021
Index Date (NOAA-20) Time (NOAA-20) Lat,Lon (NOAA-20) SZA (NOAA-20 ) Date (NOAA-19) Time (NOAA-19) Lat,Lon (NOAA-19) SZA (NOAA-19 ) Distance(km) Time Diff (sec)
1 06/27/2021 23:36:49 77.87, 161.74 55.78 06/27/2021 23:35:44 77.88, 158.21 56.19 82.63 65
2 06/28/2021 00:27:42 -78.20, -32.70 123.75 06/28/2021 00:26:36 -78.20, -32.69 123.73 0.68 66
3 06/28/2021 01:18:27 78.19, 134.66 56.24 06/28/2021 01:17:36 78.20, 134.55 56.27 2.60 51
4 06/28/2021 02:09:12 -78.21, -58.09 123.75 06/28/2021 02:08:36 -78.21, -58.11 123.73 0.60 36
5 06/28/2021 02:59:57 78.20, 109.27 56.25 06/28/2021 02:59:36 78.21, 109.12 56.28 3.48 21
6 06/28/2021 03:50:42 -78.21, -83.48 123.74 06/28/2021 03:50:36 -78.22, -83.54 123.72 1.71 6
7 06/28/2021 04:41:28 78.24, 83.65 56.31 06/28/2021 04:41:36 78.22, 83.69 56.29 2.79 8
8 06/28/2021 05:32:12 -78.21,-108.88 123.73 06/28/2021 05:32:36 -78.23,-108.96 123.71 2.85 24
9 06/28/2021 06:22:58 78.25, 58.26 56.32 06/28/2021 06:23:36 78.23, 58.26 56.29 1.82 38
10 06/28/2021 07:13:43 -78.26,-134.49 123.66 06/28/2021 07:14:36 -78.25,-134.39 123.71 2.70 53
11 06/28/2021 08:04:28 78.25, 32.86 56.33 06/28/2021 08:05:36 78.24, 32.83 56.30 1.19 68



Historial Predications of SNOs between NOAA-20 and NOAA-19
